Home   Weather   Fall River   Past weeks

Flag for USA Past Weather in Fall River, Massachusetts, USA — Yesterday and Last 2 Weeks

Now
39 °F

Overcast.


Feels Like: 37 °F
Forecast: 34 / 47 °F
Wind: 3 mph from North

Location: New Bedford Regional Airport

Current Time: Jan 19, 2017 at 12:00:13 am

Latest Report: Jan 18, 2017 at 10:53 pm


Visibility: 10 mi

Pressure: 29.97 "Hg

Humidity: 93%

Dew Point: 37 °F

Location of Fall RiverLocation

Past Weather in Fall River — Graph

°F

Fall River Temperature Yesterday

Maximum temperature yesterday: 43 °F (at 12:57 pm)
Minimum temperature yesterday: 39 °F (at 6:53 am)
Average temperature yesterday: 41 °F

High & Low Weather Summary for the Past Weeks

 TemperatureHumidityPressure
High56 °F (Jan 12, 11:53 am)96% (Jan 4, 1:18 am)30.70 "Hg (Jan 4, 1:18 am)
Low1 °F (Jan 10, 1:53 am)29% (Jan 13, 8:53 pm)29.33 "Hg (Jan 4, 1:18 am)
Average34 °F70%30.16 "Hg
* Reported Jan 3 10:20 pm — Jan 18 10:53 pm, Fall River, Weather by CustomWeather, © 2017

Note: Actual official high and low records may vary slightly from our data, if they occured in-between our weather recording intervals... More about our weather records

Advertising

Fall River Weather History for the Previous 24 Hours

Scroll right to see more
 ConditionsComfort  
Time TempWeatherWind HumidityBarometerVisibility
10:53 pm
Wed, Jan 18
39 °FOvercast.3 mph93%29.97 "Hg10 mi
9:53 pm39 °FMostly cloudy.No wind93%29.98 "Hg10 mi
9:19 pm40 °FMostly cloudy.No wind89%30.00 "Hg10 mi
8:53 pm40 °FLow clouds.No wind93%30.01 "Hg10 mi
7:53 pm40 °FFog.7 mph93%30.01 "Hg5 mi
6:53 pm41 °FFog.3 mph93%30.00 "Hg4 mi
5:53 pm41 °FFog.6 mph93%29.98 "Hg4 mi
4:53 pm41 °FFog.9 mph93%29.95 "Hg4 mi
3:53 pm42 °FFog.8 mph89%29.94 "Hg4 mi
3:14 pm42 °FFog.9 mph89%29.93 "Hg2 mi
2:53 pm42 °FFog.8 mph89%29.93 "Hg4 mi
1:53 pm43 °FFog.14 mph89%29.90 "Hg4 mi
12:57 pm43 °FFog.13 mph89%29.89 "Hg2 mi
11:53 am42 °FLight rain. Fog.12 mph92%29.89 "Hg2 mi
11:18 am41 °FLight rain. Fog.8 mph93%29.91 "Hg2 mi
10:53 am41 °FFog.10 mph89%29.93 "Hg2 mi
9:53 am41 °FFog.9 mph89%29.95 "Hg2 mi
8:53 am40 °FLight rain. Fog.9 mph89%29.94 "Hg2 mi
7:53 am40 °FFog.8 mph89%29.93 "Hg2 mi
6:53 am39 °FFog.9 mph93%29.93 "Hg4 mi
5:53 am40 °FFog.6 mph89%29.95 "Hg6 mi
4:53 am40 °FLight rain. Fog.12 mph89%29.93 "Hg6 mi
3:53 am40 °FLight rain. Fog.9 mph89%29.96 "Hg4 mi
2:53 am40 °FLight rain. Fog.8 mph89%29.98 "Hg4 mi
1:53 am40 °FLight rain. Fog.7 mph89%30.00 "Hg5 mi
1:08 am40 °FMostly cloudy.9 mph89%30.01 "Hg10 mi
12:02 am40 °FRain. Fog.8 mph89%30.06 "Hg5 mi
Weather by CustomWeather, © 2017

See weather overviewHow to use our weather pages